Погода Новотроицкое

Погода Новотроицкое : погода сейчас, прогноз погоды и архив. Всё, что Вы хотите узнать о погоде Новотроицкое!

Хотите узнать прогноз погоды Новотроицкое? Тогда Вам сюда: Погода Новотроицкое

Поиск расширенной информации на нашем сайте:

Другие новости

Новости СМИ2

Главная страница сайта

Новости сайта

03.07.2017

Напоминаем, что на нашем специализированном сайте Метеоцентр.Азия вы можете получить высокодетализированные автоматические прогнозы погоды по пунктам России, СНГ и мира в авиационном формате (включающие направление и скорость ветра, видимость, явления погоды, количество и форму облачности, нижнюю и верхнюю границу облачности).


Погода Новотроицкое - сегодня

Время (UTC), дата Ветер
(°,м/с) 
Видим.   Явления Облачность Т
(°С)
Тd
(°С)
f(%) Тe
(°С)
Pmin
(гПа)
dP
(гПа)
Po
(мм)
O2
(г/м3)
Тmin Tmax R s Состояние
почвы
03 17.04.18 090 (В) 20000 м  гроза, пыльная буря  10/0 средняя 
[Ac As]
+12.2 +5.6 64 +13  1016.6  -0.6             
06 17.04.18 050 (СВ) 20000 м    8/0 средняя 
[Ac trans]
+19.5 +4.6 37 +21  1013.4  -1.7  721  270  +5.5         
09 17.04.18 340 (С) 20000 м    8/0 средняя 
[Ac trans]
+20.6 +4.6 35 +21  1012  -1.2  720  269           
12 17.04.18 340 (С) 20000 м    10/0 средняя 
[Ac As]
+20.3 +5.3 37 +20  1011.1  -0.8  719  269           
15 17.04.18 270 (З) 10 км    10/10 600 м 
[Sc]
+14.8 +8.2 65 +15  1011.1  -1  719  273    +21.8       
21 17.04.18 270 (З) 10 км  слаб. дождь  10/10 300 м 
[Ns]
+6.8 +5.7 93 +7  1020.2  3.6  724  284           
09 18.04.18 270 (З) 20000 м    6/6 1000 м 
[Cu med, cong]
+11.6 +2.7 54 +11  1024.8  -0.2  728  281           
12 18.04.18 270 (З) 20000 м    9/9 600 м 
[Sc]
+9.8 +3.6 65 +11  1025.4  0.2  728  283           
15 18.04.18 180 (Ю) 10 км    6/6 1000 м 
[Sc]
+7.7 +4.3 79 +9  1026.9  729  285    +12.2       
18 18.04.18 180 (Ю) 10 км    3/0 средняя 
[Ac trans]
+6 +4.1 88 +7  1026.4  -0.7  728  286    +12.2       
21 18.04.18 140 (ЮВ) 10 км    ясно 
+4.5 +3 90 +5  1025.8  -1  728  288           
00 19.04.18 180 (Ю) 10 км    6/0 средняя 
[Ac cast]
+2.3 +1.5 94 +3  1025.1  -1  727  290           
06 19.04.18 230 (ЮЗ) 20000 м    6/6 1000 м 
[Cu med, cong]
+14.4 +4.1 50 +16  1021.3  -1.3  726  277  +2.2         
09 19.04.18 230 (ЮЗ) 20000 м    8/8 1000 м 
[Cu med, cong]
+16.3 +1.9 38 +17  1019.8  -1.2  725  275           
12 19.04.18 360 (С) 20000 м    8/8 1000 м 
[Cu med, cong]
+15.7 +1.1 37 +16  1020  0.1  725  276           
15 19.04.18 тихо ()   10 км    4/4 1000 м 
[Sc diur, vesp]
+9.6 +3.6 66 +10  1021.7  0.6  726  282    +17       
18 19.04.18 тихо ()   10 км    4/0 средняя 
[Ac trans]
+7.4 +2.9 73 +7  1022.9  0.6  726  284    +17       
21 19.04.18 тихо ()   10 км    ясно 
+5.3 +1.8 78 +5  1022.1  -1.1  725  286           
00 20.04.18 тихо ()   10 км    ясно 
+3.1 +1.2 87 +3  1021.9  -0.6  725  288           
06 20.04.18 050 (СВ) 20000 м    8/8 1000 м 
[Cu med, cong]
+16.8 +5.1 46 +17  1017.7  -2  724  274  +3         
09 20.04.18 050 (СВ) 20000 м    8/8 1000 м 
[Cu med, cong]
+18.4 +1.5 32 +19  1015.5  -1.9  722  272           
12 20.04.18 050 (СВ) 20000 м    8/8 1000 м 
[Cu med, cong]
+17.8 +0.4 31 +18  1014.3  -1.2  721  273           
15 20.04.18 050 (СВ) 10 км    ясно 
+12.6 +2.9 52 +13  1015.4  0.2  722  277    +19.6       
18 20.04.18 050 (СВ) 10 км    6/0 средняя 
[Ac trans]
+7.8 +2.5 69 +9  1016.4  722  282    +19.6       
21 20.04.18 тихо ()   10 км    10/0 средняя 
[Ac As]
+6 +2.1 76 +6  1015.1  -1.6  720  284           
Время (UTC), дата Ветер
(°,м/с) 
Видим.   Явления Облачность Т
(°С)
Тd
(°С)
f(%) Тe
(°С)
Pmin
(гПа)
dP
(гПа)
Po
(мм)
O2
(г/м3)
Тmin Tmax R s Состояние
почвы

Для получения пояснительной информации подведите курсор к названию столбца.

ПОГОДА Новотроицкое - архив

Всё, что Вы хотите узнать о погоде Новотроицкое - удобно и подробно!

Выберите нужную дату (начиная с 1 января 2015* года) и нажмите кнопку "Найти".
Будут отображены архивные сводки погоды по пункту Новотроицкое, начиная с указанной даты.


Отображать данные в формате CSV (для использования в таблицах Excel)


Внимание! Наш архив погоды предназначен исключительно для личного некоммерческого использования в познавательных целях. Если Вам необходимы официальные справки о состоянии погоды (для производственных, юридических, коммерческих и т.п. целей), обращайтесь в органы Росгидромета.

*Примечание: данная дата относится к архиву по метеостанциям СССР (Россия, СНГ, Балтия).
Архив по метеостанциям Зарубежной Европы и Азии (кроме Китая) хранится 10 дней, по другим регионам земного шара (Китай, Африка, Америка, Австралия, Океания) - 1 день.

Новотроицкое - район местоположения метеостанции


Название, широта, долгота, высота метеостанции:
Новотроицкое 43.7°ш. 73.8°д. 456 м над ур. моря [Казахстан]

Дополнительная информация

В oтличие oт бoльшинства пoгoдных сайтoв мы публикуем пoдрoбную метеoинфoрмацию в детальнoм прoфессиoнальнoм фoрмате.

Характеристики температуры и влажнoсти вoздуха измеряются на высoте 2 м в тени вдали oт зданий и деревьев.
Скoрoсть ветра измеряется на высoте 10 м (на урoвне рoста челoвека скoрoсть ветра ниже в 1.5-2 раза). Если метеoстанция нахoдится в гoрoде или в лесу, тo скoрoсть ветра занижена на 2-4 м/с пo сравнению с oткрытым местoм. Скoрoсть ветра над акватoриями крупных рек и oзёр, а также на вершинах хoлмoв на 2-5 м/с выше, чем в oбычных услoвиях.
Атмoсфернoе давление в разных тoчках местнoсти мoжет значительнo oтличаться oт давления на метеoстанции, в зависимoсти oт услoвий рельефа (при пoдъёме на 10 м давление пoнижается примернo на 1 мм рт.ст.).